Temp
75 69 66 72 75 79 81 82 82 78 78 79 80 80 80 79 78 77 77 78 77 78 78 75 77 78 76 77 78 77 75 76 63 60 61 61 60 60 60 62 64 62 63
73 70 70 74 73 82 82 82 82 77 79 81 81 81 81 80 79 77 75 75 75 76 76 76 77 77 76 76 75 74 74 74 72 60 59 58 57 58 58 58 59 61 61
76 74 78 76 81 81 81 81 80 80 80 80 80 79 79 80 80 79 77 75 73 73 74 74 74 75 74 75 74 72 73 72 68 63 57 59 58 58 56 58 58 59 63
79 81 76 76 83 82 82 82 81 81 80 80 80 80 80 80 80 80 80 78 78 77 75 74 73 72 73 74 74 74 70 67 67 67 62 58 58 58 58 57 56 61 63
79 78 79 81 82 82 82 81 82 81 81 81 80 81 81 81 79 78 79 79 77 77 76 75 72 69 65 66 75 72 71 67 64 60 58 57 57 57 57 63 65 67 67
81 81 80 80 80 79 81 81 80 80 80 81 81 81 79 79 64 64 72 77 77 76 75 77 73 71 67 64 65 65 66 71 68 67 64 63 61 64 64 67 66 63 61
84 83 81 79 78 77 78 80 79 79 79 79 80 80 76 73 63 63 68 78 77 76 75 76 78 79 76 75 66 67 66 66 67 71 67 67 65 67 68 65 66 66 66
84 83 81 76 74 71 72 72 76 78 77 76 78 78 76 70 60 60 64 77 76 76 76 75 73 72 67 72 73 71 70 69 70 74 70 69 68 69 69 68 68 68 70
83 81 79 76 75 75 73 75 74 72 73 70 75 76 74 70 58 61 61 77 75 74 74 69 74 71 57 58 73 69 69 69 61 58 58 58 59 60 64 73 68 69 69
84 81 79 76 75 75 73 73 74 73 69 70 74 76 66 66 55 57 61 79 75 75 73 69 56 62 55 56 73 71 69 71 72 69 68 64 67 66 66 71 73 71 72
84 83 79 79 75 77 75 69 69 70 70 72 72 73 73 67 60 55 57 75 75 71 70 74 69 54 53 55 59 71 67 67 68 73 75 76 76 75 75 73 70 72 70
81 80 78 77 77 78 75 73 72 71 70 69 70 66 67 71 60 54 55 58 62 72 71 70 63 51 51 52 63 54 57 58 77 76 76 74 74 74 74 72 71 71 72
76 74 75 75 77 75 74 72 70 69 71 70 71 65 65 66 65 52 52 54 58 69 70 58 53 51 52 59 55 56 54 75 76 74 72 72 73 73 71 71 72 71 70
73 73 73 72 68 70 72 71 68 65 67 67 67 68 60 68 63 67 67 65 55 64 59 61 63 61 54 66 65 67 75 74 73 72 72 74 75 74 73 73 72 72 71
71 72 70 70 65 58 53 52 61 62 61 59 59 59 59 60 67 62 66 70 67 62 64 70 70 72 72 74 74 75 75 74 73 73 73 72 73 72 72 73 71 71 69
69 71 71 72 65 58 55 52 47 47 49 48 51 55 60 51 47 47 48 50 50 52 68 71 72 74 74 74 74 73 73 69 73 73 73 72 71 71 69 71 72 70 68
68 70 70 67 65 58 56 55 53 49 45 44 45 47 51 48 44 44 45 46 47 49 68 74 74 74 74 75 75 76 73 73 70 73 73 72 72 72 69 71 71 70 69
69 57 71 72 68 63 61 60 59 56 54 52 48 51 42 43 43 44 44 46 63 58 71 75 75 75 75 74 75 74 74 73 73 73 73 73 72 70 70 70 70 70 68
69 72 73 72 72 66 62 60 64 65 61 59 57 54 48 43 44 44 44 68 72 72 74 77 76 76 75 75 75 74 72 73 72 71 72 72 73 71 70 71 71 58 62
70 61 64 70 70 69 70 68 65 65 66 68 70 70 66 59 64 65 66 69 72 78 78 78 77 76 75 74 73 73 73 71 71 72 73 72 72 72 71 71 71 70 70
72 72 66 70 71 72 72 72 73 70 73 77 76 74 59 69 72 72 72 73 75 78 78 78 79 77 76 74 75 74 74 75 74 74 74 72 72 71 72 71 71 70 71
73 74 73 76 78 75 75 78 79 79 79 79 78 69 51 71 78 78 77 77 78 79 80 78 79 79 78 76 74 75 75 75 75 75 74 73 72 72 71 70 70 70 70
74 75 79 79 81 72 79 81 80 80 80 80 79 75 73 74 78 79 78 79 79 79 79 79 78 79 80 79 78 75 75 74 74 73 71 70 70 70 70 68 68 67 67
74 79 80 81 80 79 79 79 80 70 79 80 80 77 76 76 78 79 79 80 79 79 79 78 75 78 78 77 75 75 75 70 71 72 69 68 68 66 68 67 66 66 66
74 77 77 79 80 78 79 79 80 80 79 79 77 75 77 78 69 78 79 77 79 76 74 74 75 75 74 72 74 66 41 34 55 38 65 66 66 64 64 65 65 65 64
74 74 72 70 70 76 77 75 76 75 74 76 72 74 78 74 75 73 69 72 77 76 75 74 72 71 71 70 69 42 35 35 47 36 54 63 65 65 65 64 62 63 63
MSLP
1014.20 1014.96 1015.07 1014.73 1014.83 1015.02 1015.19 1015.14 1015.38 1015.81 1016.01 1016.04 1015.94 1015.80 1015.74 1015.78 1015.92 1015.87 1015.56 1015.32 1015.18 1014.85 1014.67 1014.61 1014.27 1014.06 1014.06 1014.06 1014.06 1014.35 1014.57 1015.21 1016.78 1018.80 1019.42 1020.05 1020.33 1020.47 1020.60 1020.53 1020.64 1020.78 1020.84
1014.80 1015.31 1015.62 1015.50 1015.54 1015.08 1015.40 1015.47 1015.76 1016.26 1016.29 1016.14 1016.06 1016.00 1015.90 1015.99 1015.99 1016.03 1015.95 1015.88 1015.72 1015.47 1015.21 1015.04 1014.73 1014.56 1014.58 1014.64 1014.77 1014.97 1015.20 1015.52 1016.26 1018.32 1019.60 1020.42 1020.75 1021.02 1021.25 1021.22 1021.32 1021.25 1021.33
1014.86 1015.19 1015.18 1015.39 1014.96 1015.37 1015.56 1015.76 1016.02 1016.18 1016.30 1016.45 1016.52 1016.38 1016.31 1016.20 1016.14 1016.13 1016.22 1016.33 1016.40 1016.48 1016.19 1016.01 1015.65 1015.30 1015.30 1015.32 1015.44 1015.86 1016.13 1016.58 1017.20 1018.24 1019.64 1020.54 1021.15 1021.50 1021.69 1021.72 1021.72 1021.61 1021.44
1014.38 1014.40 1014.75 1014.96 1014.88 1015.32 1015.52 1015.80 1015.98 1016.03 1016.22 1016.56 1016.74 1016.69 1016.52 1016.45 1016.54 1016.43 1016.41 1016.41 1016.54 1016.73 1016.89 1016.80 1016.69 1016.53 1016.17 1015.84 1015.89 1016.21 1016.92 1017.33 1017.80 1018.40 1019.62 1020.55 1021.12 1021.54 1021.62 1021.71 1021.82 1021.70 1021.48
1014.16 1014.47 1014.48 1014.37 1014.84 1015.32 1015.55 1015.81 1016.02 1016.18 1016.42 1016.58 1016.59 1016.64 1016.58 1016.71 1017.18 1017.14 1016.86 1016.91 1016.99 1017.05 1017.23 1017.48 1017.62 1017.54 1017.28 1016.91 1016.57 1016.89 1017.10 1017.82 1018.52 1019.26 1019.97 1020.59 1021.10 1021.36 1021.25 1021.10 1020.78 1020.66 1020.87
1013.97 1014.16 1014.58 1014.69 1015.14 1015.53 1015.62 1015.91 1016.21 1016.36 1016.54 1016.61 1016.63 1016.70 1017.00 1017.54 1018.06 1017.86 1017.51 1017.50 1017.54 1017.54 1017.53 1017.52 1017.90 1017.90 1018.06 1017.96 1017.79 1017.76 1017.76 1017.79 1018.34 1018.90 1019.64 1019.93 1020.43 1020.47 1020.70 1020.34 1020.24 1020.28 1020.24
1013.39 1013.86 1014.44 1014.91 1015.28 1015.81 1015.92 1015.96 1016.14 1016.49 1016.67 1016.78 1016.74 1016.93 1017.60 1018.36 1018.62 1018.41 1018.10 1017.90 1017.85 1017.98 1018.00 1017.84 1017.62 1018.00 1017.94 1018.30 1018.46 1018.42 1018.49 1018.58 1018.62 1018.68 1019.06 1019.38 1019.75 1019.76 1019.94 1020.14 1020.17 1020.08 1019.97
1013.14 1013.74 1014.40 1015.04 1015.60 1016.13 1016.30 1016.57 1016.51 1016.63 1016.84 1017.01 1016.98 1017.38 1018.00 1018.91 1019.15 1019.00 1018.70 1018.32 1018.32 1018.40 1018.53 1018.74 1018.92 1018.98 1019.14 1018.76 1018.92 1019.18 1019.47 1019.68 1019.52 1019.28 1019.63 1019.85 1019.97 1019.93 1019.80 1019.86 1019.95 1020.03 1020.12
1013.02 1013.65 1014.40 1015.10 1015.46 1016.08 1016.42 1016.66 1016.90 1017.11 1017.38 1017.63 1017.38 1017.83 1018.33 1019.13 1019.44 1019.38 1019.23 1018.44 1018.58 1018.74 1019.25 1019.71 1019.46 1019.75 1019.76 1019.47 1019.31 1019.60 1019.89 1020.17 1020.72 1020.78 1020.85 1020.85 1020.77 1020.61 1020.29 1019.64 1019.42 1019.35 1018.93
1012.64 1013.42 1014.29 1015.00 1015.37 1015.68 1016.21 1016.44 1016.82 1017.53 1017.94 1017.88 1017.67 1017.85 1018.41 1019.14 1019.42 1019.42 1019.22 1018.52 1018.62 1018.78 1019.47 1020.22 1020.73 1020.85 1020.56 1020.13 1019.64 1019.61 1019.70 1019.74 1019.74 1020.39 1020.70 1020.68 1020.31 1020.46 1020.14 1019.93 1019.51 1018.90 1018.42
1012.34 1013.07 1013.97 1014.56 1015.07 1015.42 1016.00 1016.74 1017.09 1017.29 1017.49 1017.67 1017.86 1018.24 1018.45 1019.10 1019.44 1019.61 1019.52 1018.76 1018.82 1019.37 1019.47 1019.82 1021.09 1021.33 1021.10 1020.72 1020.30 1020.06 1020.24 1020.32 1020.08 1019.66 1019.33 1019.29 1019.22 1019.38 1019.55 1020.06 1020.37 1019.76 1019.44
1012.90 1013.20 1013.89 1014.39 1014.78 1015.12 1015.74 1016.42 1016.98 1017.14 1017.37 1017.63 1017.90 1018.58 1018.84 1019.12 1019.58 1019.84 1019.84 1019.73 1019.80 1019.60 1019.85 1020.55 1021.46 1021.48 1021.25 1021.13 1021.12 1021.05 1020.82 1020.30 1019.36 1019.21 1019.08 1019.30 1019.33 1019.31 1019.64 1020.22 1020.50 1020.41 1020.24
1013.65 1013.89 1014.16 1014.40 1014.47 1014.97 1015.39 1015.94 1016.65 1017.05 1016.99 1017.47 1017.86 1018.54 1018.84 1019.24 1019.71 1020.07 1020.23 1020.24 1020.16 1020.16 1020.55 1021.13 1021.42 1021.60 1021.14 1021.28 1021.01 1021.00 1020.79 1019.76 1019.33 1019.18 1019.33 1019.54 1019.86 1020.17 1020.27 1019.97 1019.92 1020.00 1020.16
1014.06 1014.11 1014.46 1014.67 1015.04 1015.39 1015.61 1015.92 1016.34 1016.65 1016.87 1017.03 1017.60 1018.06 1018.80 1018.89 1019.55 1019.90 1020.19 1020.40 1020.49 1020.64 1021.14 1021.42 1021.43 1021.60 1021.34 1020.96 1020.80 1020.50 1020.25 1020.12 1019.93 1019.86 1019.82 1019.84 1019.81 1019.78 1019.78 1019.95 1019.75 1019.64 1019.48
1014.44 1014.52 1014.88 1015.17 1015.75 1016.42 1017.18 1017.31 1016.78 1016.78 1016.84 1017.25 1017.84 1018.37 1018.74 1019.10 1018.82 1019.17 1019.52 1019.97 1020.42 1020.56 1020.71 1020.76 1020.69 1020.27 1019.90 1019.70 1019.76 1019.91 1019.92 1020.06 1019.99 1020.04 1019.94 1019.83 1019.68 1019.69 1019.65 1019.82 1019.81 1019.55 1019.29
1014.72 1014.59 1014.62 1014.88 1015.96 1016.56 1017.20 1017.52 1017.49 1017.36 1017.44 1017.77 1018.11 1018.62 1018.94 1018.95 1019.04 1019.49 1019.74 1020.22 1020.54 1020.44 1020.11 1019.74 1019.18 1018.76 1018.62 1018.74 1018.97 1019.42 1019.87 1020.16 1020.11 1020.17 1020.10 1020.03 1019.93 1019.82 1020.13 1019.82 1019.80 1019.70 1019.43
1014.67 1014.51 1014.77 1015.09 1015.84 1016.43 1016.98 1017.28 1017.64 1018.26 1018.08 1018.32 1018.56 1018.84 1019.00 1019.37 1019.66 1019.88 1020.23 1020.58 1020.51 1020.44 1019.71 1018.52 1018.01 1018.20 1018.37 1018.59 1018.66 1018.83 1019.17 1019.96 1020.62 1020.17 1020.12 1020.08 1019.95 1019.78 1020.03 1019.59 1019.48 1019.49 1019.48
1014.73 1014.73 1014.52 1014.64 1015.47 1016.16 1016.51 1016.80 1017.08 1017.63 1017.80 1018.46 1018.87 1019.04 1019.28 1019.62 1019.95 1020.25 1020.52 1020.52 1020.33 1020.18 1018.91 1017.61 1017.56 1017.86 1018.10 1018.41 1018.60 1018.86 1019.27 1019.72 1019.83 1020.08 1020.00 1019.98 1019.91 1019.84 1019.58 1019.49 1019.30 1019.22 1019.53
1014.50 1014.31 1014.15 1014.41 1014.76 1015.62 1016.22 1016.27 1016.37 1016.70 1017.20 1017.72 1018.57 1018.99 1019.52 1019.82 1020.04 1020.27 1020.33 1019.42 1018.49 1018.40 1017.88 1016.99 1017.27 1017.64 1018.03 1018.25 1018.54 1019.00 1019.47 1019.49 1019.72 1019.99 1019.68 1019.63 1019.60 1019.56 1019.39 1019.24 1019.13 1019.23 1019.33
1014.18 1014.53 1014.33 1014.34 1014.67 1015.02 1015.17 1015.37 1015.70 1015.94 1016.19 1016.29 1016.59 1017.12 1018.48 1019.42 1019.24 1019.17 1019.29 1018.76 1017.69 1016.52 1016.56 1016.60 1017.02 1017.49 1017.76 1018.12 1018.60 1019.01 1019.28 1019.53 1019.47 1019.46 1019.17 1019.36 1019.45 1019.30 1019.05 1018.92 1018.79 1018.64 1018.55
1013.52 1013.52 1014.01 1014.12 1013.98 1014.08 1014.16 1014.21 1014.12 1014.54 1014.49 1014.35 1014.82 1015.37 1016.87 1017.35 1016.95 1016.98 1017.21 1017.25 1016.71 1016.08 1016.06 1016.35 1016.54 1017.22 1017.63 1018.02 1018.24 1018.49 1018.46 1018.40 1018.50 1018.56 1018.80 1019.04 1018.99 1019.07 1018.94 1018.77 1018.65 1018.48 1018.14
1013.28 1013.04 1013.33 1012.94 1012.48 1012.79 1012.93 1012.76 1012.71 1012.93 1013.15 1013.54 1014.07 1015.76 1016.36 1016.60 1015.14 1015.32 1015.70 1015.92 1016.02 1015.89 1015.90 1016.31 1016.30 1016.24 1016.64 1016.96 1017.35 1017.79 1017.82 1017.97 1018.00 1018.06 1018.27 1018.56 1018.79 1018.83 1018.70 1018.54 1018.36 1018.09 1018.08
1012.63 1012.28 1011.94 1011.85 1011.57 1011.84 1012.05 1012.04 1012.30 1012.39 1012.62 1013.02 1013.68 1015.02 1015.78 1015.57 1014.62 1014.62 1014.90 1015.16 1015.46 1015.66 1015.90 1016.14 1016.43 1016.22 1016.30 1016.57 1017.38 1017.91 1018.05 1018.05 1018.06 1018.45 1018.83 1019.00 1019.02 1018.93 1018.82 1018.78 1018.80 1018.51 1018.30
1012.05 1011.30 1011.34 1011.23 1011.52 1011.73 1011.85 1011.82 1011.94 1012.19 1012.24 1012.60 1013.01 1013.63 1014.38 1014.61 1014.32 1014.22 1014.43 1014.62 1014.92 1015.19 1015.48 1016.02 1016.62 1016.44 1016.39 1016.99 1017.51 1017.99 1018.27 1018.95 1019.08 1018.96 1019.26 1019.38 1019.28 1019.14 1018.94 1018.86 1018.91 1018.57 1018.43
1011.65 1011.20 1011.18 1011.10 1011.18 1011.63 1011.54 1011.48 1011.59 1011.82 1012.21 1012.33 1012.82 1013.14 1013.31 1013.68 1014.25 1013.94 1013.86 1014.28 1014.50 1015.30 1016.13 1016.46 1016.64 1016.69 1017.00 1017.34 1017.37 1018.50 1019.92 1020.29 1020.15 1020.66 1019.98 1019.55 1019.25 1019.23 1019.25 1019.07 1018.84 1018.62 1018.49
1011.59 1011.49 1011.57 1011.51 1011.39 1011.32 1011.26 1011.31 1011.31 1011.57 1011.89 1012.12 1012.45 1012.83 1012.82 1013.52 1013.46 1013.67 1013.90 1014.16 1014.60 1015.01 1015.48 1015.94 1016.40 1016.82 1017.34 1017.69 1018.04 1019.72 1020.36 1020.62 1020.70 1021.04 1020.65 1019.65 1019.04 1018.94 1018.89 1018.73 1018.95 1018.68 1018.42
Wind_Speed
13 10 9 4 5 2 4 5 5 5 1 2 3 5 6 6 6 7 7 9 9 9 9 7 9 8 5 4 4 2 4 6 7 4 3 4 4 6 6 7 7 7 7
11 10 7 4 9 7 6 6 5 4 3 4 4 6 7 7 7 8 9 9 9 9 10 11 10 7 10 8 5 7 5 5 7 7 3 3 4 4 5 6 4 4 5
10 8 9 7 8 8 7 6 6 6 5 5 5 5 6 7 7 8 10 9 8 10 11 10 11 11 9 9 9 8 7 6 6 7 5 2 3 2 3 3 3 1 3
11 9 7 10 8 7 6 6 6 6 6 6 5 5 6 8 8 8 9 9 9 10 11 12 12 12 11 7 8 9 8 8 7 7 8 5 3 2 1 2 2 2 3
10 9 9 6 7 8 8 7 6 5 5 5 5 5 6 7 8 8 7 8 9 9 10 11 13 15 17 18 8 9 8 9 7 7 5 3 2 2 2 4 2 5 5
12 11 6 4 7 7 6 7 6 5 5 5 5 5 7 7 9 10 7 7 8 7 7 8 9 13 14 14 14 17 13 7 8 7 6 6 5 5 4 4 3 3 3
11 10 10 7 9 7 6 6 7 6 5 4 4 6 8 8 5 7 11 7 8 7 8 8 8 9 7 11 9 12 14 13 11 7 7 5 5 4 5 3 1 1 2
8 9 10 7 4 4 5 4 3 4 4 2 4 5 7 6 4 8 10 7 7 7 7 8 8 8 10 9 10 12 12 12 11 9 9 8 7 3 2 3 3 3 3
10 9 9 9 7 7 6 7 5 4 4 3 2 5 7 7 2 6 8 6 6 7 8 10 7 7 11 14 10 10 10 10 10 10 9 7 6 6 6 5 4 6 6
10 9 10 9 8 9 8 6 7 6 4 4 4 5 7 7 2 6 8 5 4 6 7 8 12 8 8 10 5 6 6 5 6 8 6 5 7 3 5 6 7 6 6
9 9 10 10 9 9 9 4 5 7 6 5 5 6 6 7 5 3 8 2 5 3 2 6 6 7 7 9 9 6 5 1 3 6 5 3 4 6 7 6 6 7 6
4 6 8 8 8 9 10 9 10 8 10 8 7 5 4 6 7 4 7 8 3 3 5 6 5 2 6 6 4 2 5 8 3 1 1 4 4 5 5 4 3 3 3
5 6 8 6 8 7 9 10 9 8 7 9 8 6 5 4 6 8 5 5 5 3 5 7 7 4 4 7 1 5 6 4 2 2 4 4 4 4 4 6 4 5 6
4 4 2 2 1 2 4 4 5 8 7 6 7 8 4 6 6 7 6 5 6 6 6 4 4 4 1 6 4 6 3 5 5 4 3 3 1 2 2 3 4 4 5
4 5 5 4 1 3 4 3 1 1 5 7 6 6 7 6 7 6 8 7 7 7 9 7 7 7 7 6 4 2 3 4 2 2 2 2 2 2 3 2 3 4 4
4 5 4 4 3 3 3 3 13 7 9 10 11 6 3 6 11 11 11 10 6 8 7 8 8 6 5 4 4 4 5 2 2 2 2 3 3 3 5 3 2 3 3
6 3 4 3 4 4 4 4 5 6 12 9 9 5 4 9 8 9 8 7 5 4 8 9 6 4 4 3 3 2 5 5 2 1 2 2 2 2 4 2 2 3 4
7 2 5 5 6 5 6 6 6 6 6 4 2 4 9 9 9 7 7 6 6 7 10 8 5 5 5 4 4 4 3 5 4 2 1 2 2 4 3 4 4 2 4
5 6 6 4 5 6 6 4 5 7 7 7 7 5 6 6 7 5 5 9 9 10 10 7 6 6 5 4 3 1 2 2 4 4 3 2 2 4 4 4 5 4 3
7 1 4 5 6 7 8 8 8 8 10 10 9 10 11 9 8 9 9 10 11 9 8 7 6 5 6 4 4 4 6 7 8 8 4 5 6 5 6 7 7 7 7
6 6 8 7 7 8 8 9 9 8 12 9 9 11 14 11 10 10 10 11 10 7 6 6 7 7 5 7 6 7 7 6 6 5 3 6 5 7 7 8 8 9 9
8 8 9 11 12 12 12 13 10 8 8 9 8 8 14 10 8 8 9 8 8 6 5 5 6 7 8 7 7 7 6 7 7 6 4 5 7 8 8 9 10 9 10
9 12 9 10 7 6 6 8 9 9 9 9 10 9 10 9 8 7 7 7 7 6 6 5 6 5 5 3 0 4 7 7 6 5 5 6 7 9 9 10 11 11 10
13 10 10 9 8 9 9 9 9 7 8 8 9 12 12 10 9 7 7 8 7 8 5 3 4 8 4 2 4 5 2 5 4 3 2 6 7 8 9 9 10 12 9
11 9 9 9 9 9 10 9 10 10 10 8 5 3 6 5 4 8 6 7 5 5 6 7 8 8 7 6 5 10 8 7 5 6 5 8 9 9 8 9 9 9 9
11 6 5 4 5 8 9 8 8 6 6 7 1 4 5 6 7 5 4 7 7 7 7 5 4 6 8 7 5 12 6 5 2 4 6 8 8 7 8 6 9 9 8
Wind_Direction
82 78 18 16 41 121 152 106 85 82 139 98 78 72 66 66 62 59 57 40 43 35 31 31 30 34 52 58 94 94 92 103 113 85 77 66 63 66 52 59 56 65 71
126 125 143 167 237 146 142 110 104 95 104 85 76 74 77 72 69 71 59 45 37 36 38 32 28 49 59 60 61 68 72 80 118 119 114 96 74 64 66 68 60 65 80
148 163 171 200 176 150 135 125 115 121 92 80 75 76 73 69 73 76 78 65 50 36 37 38 20 39 51 60 62 64 64 84 108 129 112 95 94 93 81 67 69 48 115
168 173 170 232 133 150 140 142 138 128 122 121 107 93 83 74 63 61 62 67 76 71 59 48 45 37 29 33 76 89 83 82 87 105 110 107 87 98 110 132 145 185 168
168 178 196 154 158 151 159 154 146 144 133 131 118 98 78 63 47 22 74 75 70 71 77 71 62 57 49 44 47 44 108 95 94 104 99 106 120 156 188 189 154 159 157
174 172 185 147 146 157 175 156 156 149 150 153 142 115 86 74 11 4 23 77 75 73 72 91 125 98 71 59 61 57 48 104 122 126 144 135 164 156 163 192 187 192 149
179 173 167 189 163 165 218 170 165 168 161 168 154 129 109 102 21 0 346 82 86 76 53 42 56 49 63 95 97 82 60 43 61 87 105 103 135 138 137 160 151 253 67
179 168 164 181 177 175 183 195 175 164 166 186 166 129 114 98 17 345 343 99 93 82 81 77 67 68 40 40 83 77 69 52 41 65 62 69 67 31 154 154 163 143 144
175 173 182 184 193 173 173 182 153 163 177 295 146 163 126 119 22 332 318 127 102 88 68 33 79 74 11 2 97 100 97 96 77 81 95 94 75 44 11 281 214 204 216
197 186 174 186 200 192 179 188 177 173 187 217 194 173 119 130 104 341 349 109 148 98 103 86 49 36 7 14 112 108 101 102 117 141 141 153 148 119 54 32 351 338 335
201 179 183 186 190 209 180 136 175 203 183 173 187 167 155 148 135 13 346 328 96 104 198 108 79 18 20 20 29 56 81 47 197 209 170 142 158 147 76 47 26 340 351
154 180 191 189 200 198 187 190 201 219 178 182 173 167 163 162 137 97 51 59 86 161 85 90 106 76 68 34 84 24 304 300 251 96 52 63 12 37 64 41 56 14 26
181 200 222 205 213 206 198 187 194 210 199 183 179 177 158 186 141 106 97 98 56 95 84 91 127 168 144 118 135 264 274 249 30 53 35 42 25 66 283 219 196 219 216
200 180 169 175 357 10 311 274 209 187 208 198 182 170 155 174 150 170 161 152 120 124 127 161 129 308 336 98 204 223 44 24 10 19 15 32 28 5 15 16 332 345 310
211 205 211 211 160 96 68 356 318 157 181 166 165 155 160 191 192 149 186 161 169 175 200 160 191 200 190 182 150 105 129 176 115 43 10 1 35 335 38 358 346 319 320
235 239 228 207 151 132 130 96 37 36 106 118 123 162 142 94 108 103 102 121 145 198 205 197 214 205 208 154 157 151 145 197 48 28 24 14 2 5 11 301 338 326 322
258 235 190 224 175 161 156 144 121 56 67 60 91 107 88 135 114 122 131 148 162 189 241 219 198 192 168 171 174 177 142 81 269 356 357 28 348 346 224 351 336 302 332
249 332 243 188 173 175 174 159 146 150 141 130 47 127 115 126 130 140 156 180 181 222 259 252 185 188 181 185 191 181 163 168 178 292 290 330 0 334 326 334 299 25 347
232 247 223 208 176 157 165 157 170 161 154 148 135 153 130 115 128 163 194 227 198 205 221 226 188 182 200 195 186 172 347 346 27 332 279 254 324 310 316 300 306 215 231
224 305 261 207 166 192 184 175 175 181 181 178 177 173 166 169 185 193 206 222 250 223 205 205 177 200 198 198 164 201 203 192 204 225 251 352 307 291 300 307 303 308 295
231 208 216 217 211 200 195 202 188 192 200 185 193 157 164 195 193 192 192 209 232 221 201 207 185 176 212 177 223 208 234 244 237 249 282 260 282 300 302 302 300 298 292
231 217 200 222 208 195 202 209 199 194 188 185 140 137 166 221 233 183 196 198 212 222 196 203 242 202 199 207 191 217 252 286 287 280 275 316 306 298 300 298 298 307 316
240 232 212 228 212 204 204 194 194 194 187 182 158 160 190 221 238 193 197 199 200 206 214 210 242 256 257 151 136 284 275 287 328 1 319 300 299 300 310 312 300 292 298
256 231 223 216 199 192 203 203 202 206 203 193 190 172 190 211 229 221 221 209 205 214 201 190 264 276 272 166 196 230 201 24 333 291 282 282 292 290 293 300 295 288 292
259 236 230 226 199 205 210 217 206 198 207 222 206 230 214 183 239 259 228 230 185 166 206 212 224 229 227 215 230 78 82 55 24 336 288 280 283 289 282 275 281 286 293
229 266 276 256 247 219 232 211 222 212 209 220 183 215 201 229 230 198 189 178 203 212 217 203 217 194 200 197 146 103 102 79 357 356 303 277 269 268 274 283 288 284 287